Overview Statistics Trail Chart Weather Telemetry Raw packets
 

This is the latest recevied weather packets stored in our database for station/object KQ7A. If no packets are shown the sender has not sent any weather packets the latest 10 day(s).

<< 54 55 56 57 58 59 60 >>
Time Temp. Humidity Pressure Rain* Wind** Luminosity Snow
1788310537 20° C 22% 1015.1 hPa 0 mm - 34 W/m² -
1788310233 20° C 21% 1015.1 hPa 0 mm - 36 W/m² -
1788309932 20° C 21% 1015.1 hPa 0 mm - 39 W/m² -
1788309627 20.56° C 20% 1015 hPa 0 mm - 59 W/m² -
1788309322 21.11° C 21% 1015 hPa 0 mm - 235 W/m² -
1788309038 21.11° C 21% 1015.1 hPa 0 mm - 253 W/m² -
1788308713 21.11° C 20% 1015 hPa 0 mm - 265 W/m² -
1788308408 21.67° C 19% 1015 hPa 0 mm - 304 W/m² -
1788308102 21.67° C 21% 1015.1 hPa 0 mm - 356 W/m² -
1788307798 21.67° C 21% 1015.2 hPa 0 mm - 372 W/m² -
1788307493 21.67° C 21% 1015.2 hPa 0 mm - 402 W/m² -
1788307187 21.67° C 21% 1015 hPa 0 mm - 442 W/m² -
1788306882 21.11° C 20% 1015 hPa 0 mm - 441 W/m² -
1788306577 21.11° C 21% 1015 hPa 0 mm - 210 W/m² -
1788306272 21.11° C 21% 1015 hPa 0 mm - 265 W/m² -
1788305966 21.67° C 21% 1015 hPa 0 mm - 431 W/m² -
1788305661 21.67° C 22% 1015.2 hPa 0 mm - 263 W/m² -
1788305359 21.67° C 21% 1015 hPa 0 mm - 438 W/m² -
1788305059 21.67° C 21% 1015.1 hPa 0 mm - 439 W/m² -
1788304754 21.67° C 21% 1015.5 hPa 0 mm - 286 W/m² -
1788304450 21.67° C 21% 1015.3 hPa 0 mm - 230 W/m² -
1788304147 21.67° C 21% 1015.2 hPa 0 mm - 227 W/m² -
1788303846 21.67° C 21% 1014.8 hPa 0 mm - 247 W/m² -
1788303541 22.22° C 22% 1015.1 hPa 0 mm - 271 W/m² -
1788303241 22.22° C 20% 1015.3 hPa 0 mm - 280 W/m² -

* Rain latest hour (hover to see other rain measurements)
** Current wind speed in m/s (hover to see current wind gust speed)